DW7214 Weather Reports


Display with metric or nautical units.
time (UTC)temp
F
wind
direction
speed
MPH
gust
MPH
rain 1hr
in
rain 24hr
in
rain mn
in
humidity
%
barometer
mb
20200806214252 67 17 2.0 0.0 0.00 0.00 0.01 35 1014.0
20200806213805 67 18 3.0 0.0 0.00 0.00 0.01 35 1013.9
20200806213300 68 73 2.0 0.0 0.00 0.00 0.01 35 1013.9
20200806212752 68 72 2.0 0.0 0.00 0.00 0.01 33 1013.9
20200806212308 67 17 1.0 0.0 0.00 0.00 0.01 32 1013.9
20200806211756 67 10 1.0 0.0 0.00 0.00 0.01 35 1013.9
20200806211252 68 5 2.0 0.0 0.00 0.00 0.01 36 1013.9
20200806210812 68 55 3.0 0.0 0.00 0.00 0.01 38 1013.8
20200806210255 69 72 2.0 0.0 0.00 0.00 0.01 43 1013.8
20200806205810 68 360 3.0 0.0 0.00 0.00 0.01 44 1013.8
20200806205258 68 360 4.0 0.0 0.00 0.00 0.01 44 1013.7
20200806204811 70 31 2.0 0.0 0.00 0.00 0.01 43 1013.7
20200806204258 71 338 2.0 0.0 0.00 0.00 0.01 42 1013.7
20200806203809 71 327 1.0 0.0 0.00 0.00 0.01 40 1013.6
20200806203301 70 33 2.0 0.0 0.00 0.00 0.01 40 1013.6
20200806202754 69 204 4.0 0.0 0.00 0.00 0.01 39 1013.6
20200806202250 68 211 2.0 0.0 0.00 0.00 0.01 39 1013.5
20200806201802 68 218 1.0 0.0 0.00 0.00 0.01 39 1013.5
20200806201258 68 221 1.0 0.0 0.00 0.00 0.01 37 1013.5
20200806200814 68 209 0.0 0.0 0.00 0.00 0.01 36 1013.5
20200806200251 67 211 0.0 0.0 0.00 0.00 0.01 36 1013.5
20200806195803 67 211 0.0 0.0 0.00 0.00 0.01 35 1013.5
20200806195254 67 211 0.0 0.0 0.00 0.00 0.01 35 1013.5
20200806194807 67 211 0.0 0.0 0.00 0.00 0.01 34 1013.5
20200806194258 67 211 0.0 0.0 0.00 0.00 0.01 34 1013.5
20200806193750 66 211 1.0 0.0 0.00 0.00 0.01 34 1013.4
20200806193305 66 211 2.0 0.0 0.00 0.00 0.01 35 1013.4
20200806192758 67 204 2.0 0.0 0.00 0.00 0.01 34 1013.4
20200806192251 67 216 1.0 0.0 0.00 0.00 0.01 33 1013.3
20200806191801 67 217 2.0 0.0 0.00 0.00 0.01 29 1013.3
20200806191255 67 182 2.0 0.0 0.00 0.00 0.01 30 1013.3
20200806190815 67 212 1.0 0.0 0.00 0.00 0.01 26 1013.3
20200806190257 66 216 2.0 0.0 0.00 0.00 0.01 27 1013.2
20200806185749 66 204 3.0 0.0 0.00 0.00 0.01 25 1013.2
20200806185304 66 200 2.0 0.0 0.00 0.00 0.01 25 1013.1
20200806184759 66 201 1.0 0.0 0.00 0.00 0.01 23 1013.1
20200806183754 66 202 4.0 0.0 0.00 0.00 0.01 19 1013.0
20200806183306 66 205 3.0 0.0 0.00 0.00 0.01 18 1013.0
20200806182758 66 196 3.0 0.0 0.00 0.00 0.01 12 1013.0
20200806182250 66 205 2.0 0.0 0.00 0.00 0.01 8 1013.0
20200806181802 65 213 2.0 0.0 0.00 0.00 0.01 7 1013.0
20200806181303 65 229 2.0 0.0 0.00 0.00 0.01 100 1013.0
20200806180818 65 229 5.0 0.0 0.00 0.00 0.01 100 1012.9
20200806180300 64 200 5.0 0.0 0.00 0.00 0.01 100 1012.9
20200806175754 64 216 5.0 0.0 0.00 0.00 0.01 100 1012.9
20200806175310 64 202 6.0 0.0 0.00 0.00 0.01 100 1012.7
20200806174758 63 204 7.0 0.0 0.00 0.00 0.01 100 1012.7
20200806174249 63 205 6.0 0.0 0.00 0.00 0.01 100 1012.7
20200806173756 63 209 5.0 0.0 0.00 0.00 0.01 100 1012.4
20200806173257 63 213 5.0 0.0 0.00 0.00 0.01 100 1012.4
20200806172749 63 228 4.0 0.0 0.00 0.00 0.01 100 1012.4
20200806172259 63 208 5.0 0.0 0.00 0.00 0.01 100 1012.2
20200806171752 62 199 6.0 0.0 0.00 0.00 0.01 100 1012.2
20200806171248 62 202 7.0 0.0 0.00 0.00 0.01 100 1012.2
20200806170808 62 204 6.0 0.0 0.00 0.00 0.01 100 1012.3
20200806170251 62 209 6.0 0.0 0.00 0.00 0.01 100 1012.3
20200806165804 61 214 6.0 0.0 0.00 0.00 0.01 100 1012.3
20200806165255 61 204 6.0 0.0 0.00 0.00 0.01 100 1012.0
20200806164807 61 215 7.0 0.0 0.00 0.00 0.01 100 1012.0
20200806164258 60 211 7.0 0.0 0.00 0.00 0.01 100 1012.0
20200806163805 60 209 7.0 0.0 0.00 0.00 0.01 100 1011.9
20200806163259 60 217 6.0 0.0 0.00 0.00 0.01 100 1011.9
20200806162754 60 219 6.0 0.0 0.00 0.00 0.01 100 1011.9
20200806162308 59 231 8.0 0.0 0.00 0.00 0.01 100 1011.8
20200806161757 59 219 8.0 0.0 0.00 0.00 0.01 100 1011.8
20200806161249 59 208 8.0 0.0 0.00 0.00 0.01 100 1011.8
20200806160820 59 214 6.0 0.0 0.00 0.00 0.01 100 1011.5
20200806160252 59 214 5.0 0.0 0.00 0.00 0.01 100 1011.5
20200806155806 58 224 6.0 0.0 0.00 0.00 0.01 100 1011.5
20200806155254 58 208 8.0 0.0 0.00 0.00 0.01 100 1011.4
20200806154806 58 198 10.0 0.0 0.00 0.00 0.01 100 1011.4
20200806153809 58 214 9.0 0.0 0.00 0.00 0.01 100 1011.4
20200806153301 57 202 8.0 0.0 0.00 0.00 0.01 100 1011.4
20200806152753 57 206 8.0 0.0 0.00 0.00 0.01 100 1011.4
20200806152305 57 190 8.0 0.0 0.00 0.00 0.01 100 1011.3
20200806151756 57 193 7.0 0.0 0.00 0.00 0.01 100 1011.3
20200806151248 57 207 7.0 0.0 0.00 0.00 0.01 100 1011.3
20200806150809 57 204 6.0 0.0 0.00 0.00 0.01 100 1011.1
20200806150251 57 200 7.0 0.0 0.00 0.00 0.01 100 1011.1
20200806145811 57 215 6.0 0.0 0.00 0.00 0.01 100 1011.1
20200806145258 57 198 5.0 0.0 0.00 0.00 0.01 100 1010.9
20200806144752 57 207 5.0 0.0 0.00 0.00 0.01 100 1010.9
20200806144305 57 224 4.0 0.0 0.00 0.00 0.00 100 1010.9
20200806143813 57 202 4.0 0.0 0.00 0.00 0.00 100 1010.8
20200806143306 57 219 3.0 0.0 0.00 0.00 0.00 100 1010.8
20200806142800 58 224 1.0 0.0 0.00 0.00 0.00 100 1010.8
20200806142248 58 226 0.0 0.0 0.00 0.00 0.00 100 1010.7
20200806141801 58 226 0.0 0.0 0.00 0.00 0.00 100 1010.7
20200806141257 58 226 0.0 0.0 0.00 0.00 0.00 100 1010.7
20200806140820 58 226 0.0 0.0 0.00 0.00 0.00 100 1010.6
20200806140300 58 226 0.0 0.0 0.00 0.00 0.00 100 1010.6
20200806135752 58 226 0.0 0.0 0.00 0.00 0.00 100 1010.6
20200806135305 58 226 1.0 0.0 0.00 0.00 0.00 100 1010.5
20200806134758 58 226 2.0 0.0 0.00 0.00 0.00 100 1010.5
20200806134247 58 226 3.0 0.0 0.00 0.00 0.00 100 1010.5
20200806133756 58 226 4.0 0.0 0.00 0.00 0.00 100 1010.4
20200806133307 59 226 4.0 0.0 0.00 0.00 0.00 100 1010.4
20200806132759 59 239 4.0 0.0 0.00 0.00 0.00 100 1010.4
20200806132256 59 229 4.0 0.0 0.00 0.00 0.00 100 1010.2
20200806131808 59 217 5.0 0.0 0.00 0.00 0.00 100 1010.2
20200806131258 60 215 5.0 0.0 0.00 0.00 0.00 100 1010.3
20200806130819 60 219 4.0 0.0 0.00 0.00 0.00 100 1010.3
20200806130301 61 225 4.0 0.0 0.00 0.00 0.00 100 1010.3
20200806125753 61 214 5.0 0.0 0.00 0.00 0.00 100 1010.3
20200806125308 61 215 4.0 0.0 0.00 0.00 0.00 100 1010.3
20200806124758 61 239 2.0 0.0 0.00 0.00 0.00 100 1010.3
20200806123758 61 214 2.0 0.0 0.00 0.00 0.00 100 1010.2
20200806123254 61 214 2.0 0.0 0.00 0.00 0.00 100 1010.2
20200806122804 61 214 2.0 0.0 0.00 0.00 0.00 100 1010.2
20200806122256 61 214 2.0 0.0 0.00 0.00 0.00 100 1010.1
20200806121750 60 214 1.0 0.0 0.00 0.00 0.00 100 1010.1
20200806121259 59 217 0.0 0.0 0.00 0.00 0.00 100 1010.1
20200806120821 59 217 0.0 0.0 0.00 0.00 0.00 100 1010.3
20200806120256 59 217 0.0 0.0 0.00 0.00 0.00 100 1010.3
20200806115749 58 217 0.0 0.0 0.00 0.00 0.00 100 1010.3
20200806115303 58 217 0.0 0.0 0.00 0.00 0.00 100 1010.3
20200806114755 58 217 0.0 0.0 0.00 0.00 0.00 100 1010.3
20200806114305 58 217 0.0 0.0 0.00 0.00 0.00 100 1010.3
20200806113756 58 217 0.0 0.0 0.00 0.00 0.00 100 1010.3
20200806113250 58 217 0.0 0.0 0.00 0.00 0.00 100 1010.3
20200806112802 57 217 0.0 0.0 0.00 0.00 0.00 100 1010.3
20200806112253 57 217 1.0 0.0 0.00 0.00 0.00 100 1010.3
20200806111805 58 217 1.0 0.0 0.00 0.00 0.00 100 1010.3
20200806111258 58 217 0.0 0.0 0.00 0.00 0.00 100 1010.3
20200806110802 58 217 1.0 0.0 0.00 0.00 0.00 100 1010.3
20200806110307 58 217 1.0 0.0 0.00 0.00 0.00 100 1010.3
20200806105758 58 217 0.0 0.0 0.00 0.00 0.00 100 1010.3
20200806105249 58 217 0.0 0.0 0.00 0.00 0.00 100 1010.3
20200806104801 58 217 0.0 0.0 0.00 0.00 0.00 100 1010.3
20200806104253 58 217 0.0 0.0 0.00 0.00 0.00 100 1010.3
20200806103802 58 217 0.0 0.0 0.00 0.00 0.00 100 1010.3
20200806103255 59 217 0.0 0.0 0.00 0.00 0.00 100 1010.3
20200806102807 59 217 0.0 0.0 0.00 0.00 0.00 100 1010.3
20200806102302 59 217 0.0 0.0 0.00 0.00 0.00 100 1010.3
20200806101754 59 217 0.0 0.0 0.00 0.00 0.00 100 1010.3
20200806101307 60 217 0.0 0.0 0.00 0.00 0.00 100 1010.3
20200806100805 60 217 0.0 0.0 0.00 0.00 0.00 100 1010.3
20200806100305 60 217 1.0 0.0 0.00 0.00 0.00 100 1010.3
20200806095757 60 217 1.0 0.0 0.00 0.00 0.00 100 1010.3
20200806095255 60 217 2.0 0.0 0.00 0.00 0.00 100 1010.4
20200806094803 60 217 2.0 0.0 0.00 0.00 0.00 100 1010.4
20200806094255 60 217 3.0 0.0 0.00 0.00 0.00 100 1010.4
20200806093256 60 218 4.0 0.0 0.00 0.00 0.00 100 1010.3
20200806092748 60 217 3.0 0.0 0.00 0.00 0.00 100 1010.3
20200806092300 60 217 3.0 0.0 0.00 0.00 0.00 100 1010.4
20200806091752 60 217 3.0 0.0 0.00 0.00 0.00 100 1010.4
20200806091304 60 217 3.0 0.0 0.00 0.00 0.00 100 1010.4
20200806090808 60 217 3.0 0.0 0.00 0.00 0.00 100 1010.3
20200806090305 60 205 3.0 0.0 0.00 0.00 0.00 100 1010.3
20200806085756 60 215 4.0 0.0 0.00 0.00 0.00 100 1010.3
20200806085251 60 215 3.0 0.0 0.00 0.00 0.00 100 1010.3
20200806084805 60 215 3.0 0.0 0.00 0.00 0.00 100 1010.3
20200806084257 60 215 3.0 0.0 0.00 0.00 0.00 100 1010.3
20200806083806 60 215 3.0 0.0 0.00 0.00 0.00 100 1010.3
20200806083257 60 215 3.0 0.0 0.00 0.00 0.00 100 1010.3
20200806082751 60 215 3.0 0.0 0.00 0.00 0.00 100 1010.3
20200806082303 60 215 3.0 0.0 0.00 0.00 0.00 100 1010.4
20200806081752 60 215 3.0 0.0 0.00 0.00 0.00 100 1010.4
20200806081304 60 215 4.0 0.0 0.00 0.00 0.00 100 1010.4
20200806080809 60 215 4.0 0.0 0.00 0.00 0.00 100 1010.4
20200806080253 60 215 5.0 0.0 0.00 0.00 0.00 100 1010.4
20200806075805 60 215 6.0 0.0 0.00 0.00 0.00 100 1010.4
20200806075251 60 219 6.0 0.0 0.00 0.00 0.00 100 1010.4
20200806074805 60 215 6.0 0.0 0.00 0.00 0.00 100 1010.4
20200806074255 61 211 7.0 0.0 0.00 0.00 0.00 100 1010.4
20200806073805 61 211 7.0 0.0 0.00 0.00 0.00 100 1010.3
20200806073300 61 211 7.0 0.0 0.00 0.00 0.00 100 1010.3
20200806072751 61 210 8.0 0.0 0.00 0.00 0.00 100 1010.3
20200806072302 61 213 8.0 0.0 0.00 0.00 0.00 100 1010.5
20200806071757 61 224 9.0 0.0 0.00 0.00 0.00 100 1010.5
20200806071251 61 214 10.0 0.0 0.00 0.00 0.00 100 1010.5
20200806070813 61 217 9.0 0.0 0.00 0.00 0.00 100 1010.4
20200806070250 61 204 8.0 0.0 0.00 0.00 0.00 100 1010.4
20200806065803 61 209 9.0 0.0 0.00 0.00 0.00 100 1010.4
20200806065300 61 213 8.0 0.0 0.00 0.00 0.00 100 1010.4
20200806064807 61 151 8.0 0.0 0.00 0.00 0.00 100 1010.4
20200806064258 61 156 9.0 0.0 0.00 0.00 0.00 100 1010.4
20200806063750 61 153 8.0 0.0 0.00 0.00 0.00 100 1010.3
20200806063305 61 134 8.0 0.0 0.00 0.00 0.00 100 1010.3
20200806062759 61 111 9.0 0.0 0.00 0.00 0.00 100 1010.3
20200806062248 61 229 9.0 0.0 0.00 0.00 0.00 100 1010.3
20200806061759 61 217 10.0 0.0 0.00 0.00 0.00 100 1010.3
20200806061251 61 255 10.0 0.0 0.00 0.00 0.00 100 1010.3
20200806060815 61 260 9.0 0.0 0.00 0.00 0.00 100 1010.2
20200806060255 61 263 8.0 0.0 0.00 0.00 0.00 100 1010.2
20200806055807 61 261 8.0 0.0 0.00 0.00 0.00 100 1010.2
20200806055257 61 262 9.0 0.0 0.00 0.00 0.00 100 1010.2
20200806054753 61 256 10.0 0.0 0.00 0.00 0.00 100 1010.2
20200806054305 61 255 10.0 0.0 0.00 0.00 0.00 100 1010.2
20200806053754 61 253 8.0 0.0 0.00 0.00 0.00 100 1009.9
20200806053305 61 219 9.0 0.0 0.00 0.00 0.00 100 1009.9
20200806052758 61 219 11.0 0.0 0.00 0.00 0.00 100 1009.9
20200806052249 61 220 11.0 0.0 0.00 0.00 0.00 100 1010.1
20200806051803 61 214 9.0 0.0 0.00 0.00 0.00 100 1010.1
20200806051252 61 209 7.0 0.0 0.00 0.00 0.00 100 1010.1
20200806050812 61 175 6.0 0.0 0.00 0.00 0.00 100 1009.9
20200806050256 61 211 6.0 0.0 0.00 0.00 0.00 100 1009.9
20200806045806 61 221 7.0 0.0 0.00 0.00 0.00 100 1009.9
20200806045258 61 234 7.0 0.0 0.00 0.00 0.00 1 1009.8
20200806044750 61 258 8.0 0.0 0.00 0.00 0.00 3 1009.8
20200806044302 61 203 10.0 0.0 0.00 0.00 0.00 4 1009.8
20200806043751 61 214 10.0 0.0 0.00 0.00 0.00 6 1009.5
20200806043305 61 217 10.0 0.0 0.00 0.00 0.00 8 1009.5
20200806042757 61 214 11.0 0.0 0.00 0.00 0.00 9 1009.5
20200806042249 61 205 10.0 0.0 0.00 0.00 0.00 12 1009.5
20200806041808 61 206 10.0 0.0 0.00 0.00 0.00 13 1009.5
20200806041257 62 228 10.0 0.0 0.00 0.00 0.00 17 1009.5
20200806040819 62 219 11.0 0.0 0.00 0.00 0.00 19 1009.3
20200806040255 62 221 10.0 0.0 0.00 0.00 0.00 23 1009.3
20200806035748 62 209 10.0 0.0 0.00 0.00 0.00 26 1009.3
20200806035257 62 217 11.0 0.0 0.00 0.00 0.00 28 1009.2
20200806034805 62 211 12.0 0.0 0.00 0.00 0.00 31 1009.2
20200806034254 62 211 12.0 0.0 0.00 0.00 0.00 34 1009.2
20200806033802 63 221 13.0 0.0 0.00 0.00 0.00 38 1009.2
20200806033257 63 207 13.0 0.0 0.00 0.00 0.00 42 1009.2
20200806032753 64 205 13.0 0.0 0.00 0.00 0.00 45 1009.2
20200806032310 64 223 12.0 0.0 0.00 0.00 0.00 47 1009.2
20200806031756 65 218 12.0 0.0 0.00 0.00 0.00 50 1009.2
20200806031248 65 223 11.0 0.0 0.00 0.00 0.00 51 1009.2
20200806030808 66 219 11.0 0.0 0.00 0.00 0.00 52 1008.9
20200806030308 66 223 11.0 0.0 0.00 0.00 0.00 53 1008.9
20200806025758 66 219 12.0 0.0 0.00 0.00 0.00 54 1008.9
20200806025300 67 217 12.0 0.0 0.00 0.00 0.00 55 1008.7
20200806024801 67 216 12.0 0.0 0.00 0.00 0.00 55 1008.7
20200806024256 68 209 12.0 0.0 0.00 0.00 0.00 55 1008.7
20200806023807 68 190 11.0 0.0 0.00 0.00 0.00 55 1008.6
20200806023256 69 217 11.0 0.0 0.00 0.00 0.00 54 1008.7
20200806022748 69 217 11.0 0.0 0.00 0.00 0.00 54 1008.7
20200806022300 69 223 11.0 0.0 0.00 0.00 0.00 54 1008.7
20200806021752 70 202 11.0 0.0 0.00 0.00 0.00 53 1008.7
20200806021305 70 235 10.0 0.0 0.00 0.00 0.00 53 1008.7
20200806020806 70 209 10.0 0.0 0.00 0.00 0.00 53 1008.5
20200806020248 71 211 11.0 0.0 0.00 0.00 0.00 53 1008.5
20200806015803 71 205 12.0 0.0 0.00 0.00 0.00 52 1008.5
20200806015256 71 212 12.0 0.0 0.00 0.00 0.00 52 1008.3
20200806014748 72 221 11.0 0.0 0.00 0.00 0.00 52 1008.4
20200806014300 72 225 10.0 0.0 0.00 0.00 0.00 52 1008.4
20200806013808 72 250 10.0 0.0 0.00 0.00 0.00 52 1008.2
20200806013305 73 211 11.0 0.0 0.00 0.00 0.00 52 1008.2
20200806012753 73 207 9.0 0.0 0.00 0.00 0.00 52 1008.2
20200806012305 74 221 8.0 0.0 0.00 0.00 0.00 51 1008.4
20200806011757 74 219 9.0 0.0 0.00 0.00 0.00 51 1008.4
20200806011253 74 211 10.0 0.0 0.00 0.00 0.00 51 1008.4
20200806010812 74 235 11.0 0.0 0.00 0.00 0.00 51 1008.5
20200806010252 74 196 10.0 0.0 0.00 0.00 0.00 51 1008.5
20200806005804 75 230 10.0 0.0 0.00 0.00 0.00 51 1008.5
20200806005259 75 221 10.0 0.0 0.00 0.00 0.00 50 1008.5
20200806004748 76 212 8.0 0.0 0.00 0.00 0.00 50 1008.5
20200806004259 77 213 9.0 0.0 0.00 0.00 0.00 48 1008.5
20200806003808 77 219 8.0 0.0 0.00 0.00 0.00 49 1008.3
20200806003302 78 207 4.0 0.0 0.00 0.00 0.00 46 1008.3
20200806002754 79 227 2.0 0.0 0.00 0.00 0.00 43 1008.3
20200806002317 79 229 5.0 0.0 0.00 0.00 0.00 42 1008.3
20200806001758 79 260 6.0 0.0 0.00 0.00 0.00 46 1008.3
20200806001249 80 212 4.0 0.0 0.00 0.00 0.00 46 1008.3
20200806000810 80 216 4.0 0.0 0.00 0.00 0.00 46 1008.5
20200806000253 80 220 4.0 0.0 0.00 0.00 0.00 46 1008.5
20200805235803 80 228 4.0 0.0 0.00 0.00 0.00 45 1008.5
20200805235255 80 228 5.0 0.0 0.00 0.00 0.00 45 1008.6
20200805234808 81 217 2.0 0.0 0.00 0.00 0.00 45 1008.6
20200805234303 81 233 4.0 0.0 0.00 0.00 0.00 43 1008.6
20200805233753 80 221 8.0 0.0 0.00 0.00 0.00 47 1008.6
20200805233307 80 215 9.0 0.0 0.00 0.00 0.00 46 1008.6
20200805232759 80 201 6.0 0.0 0.00 0.00 0.00 45 1008.6
20200805232249 81 211 4.0 0.0 0.00 0.00 0.00 45 1008.8
20200805231802 81 223 4.0 0.0 0.00 0.00 0.00 46 1008.8
20200805231254 81 242 5.0 0.0 0.00 0.00 0.00 45 1008.8
20200805230814 81 252 6.0 0.0 0.00 0.00 0.00 45 1008.9
20200805230253 81 215 6.0 0.0 0.00 0.00 0.00 46 1008.9
20200805225749 81 200 7.0 0.0 0.00 0.00 0.00 44 1008.9
20200805225301 81 213 5.0 0.0 0.00 0.00 0.00 44 1009.1
20200805224754 82 202 5.0 0.0 0.00 0.00 0.00 43 1009.1
20200805224305 82 213 4.0 0.0 0.00 0.00 0.00 42 1009.1
20200805223755 82 214 4.0 0.0 0.00 0.00 0.00 42 1009.2
20200805223249 81 202 7.0 0.0 0.00 0.00 0.00 43 1009.2
20200805222800 81 201 5.0 0.0 0.00 0.00 0.00 44 1009.2
20200805222252 82 204 4.0 0.0 0.00 0.00 0.00 43 1009.3
20200805221803 81 206 4.0 0.0 0.00 0.00 0.00 43 1009.3
20200805221259 81 207 3.0 0.0 0.00 0.00 0.00 42 1009.3
20200805220820 83 184 1.0 0.0 0.00 0.00 0.00 42 1009.6
20200805220302 82 233 2.0 0.0 0.00 0.00 0.00 40 1009.6
20200805215754 81 329 2.0 0.0 0.00 0.00 0.00 43 1009.5
20200805215306 80 200 1.0 0.0 0.00 0.00 0.00 43 1009.7